Regional Weather Roundup
Issued by NWS Cleveland, OH

Home | Current Version | Previous Version | Graphics & Text | Print | Product List | Glossary On
Versions: 1 2 3 4 5 6 7 8 9 10 11 12 13 14 15 16 17 18 19 20 21 22 23 24 25 26 27 28 29 30 31 32 33 34 35 36 37 38 39 40 41 42 43 44 45 46 47 48 49 50
000
ASUS41 KCLE 200202
RWRCLE
OHIO REGIONAL WEATHER ROUNDUP
NATIONAL WEATHER SERVICE CLEVELAND, OH
900 PM EST THU JAN 19 2017

NOTE: "FAIR" INDICATES FEW OR NO CLOUDS BELOW 12,000 FEET WITH NO
SIGNIFICANT WEATHER AND/OR OBSTRUCTIONS TO VISIBILITY.

OHZ001>008-015>018-024>027-034-035-043-044-200300-
   NORTHWEST OHIO

CITY           SKY/WX    TMP DP  RH WIND       PRES   REMARKS
DEFIANCE       MOCLDY    36  34  92 E6        29.89F
FINDLAY        PTCLDY    40  35  83 SE8       29.89F
TOLEDO EXPRESS PTCLDY    35  35 100 E3        29.91F
TOLEDO EXEC    CLOUDY    36  35  96 E6        29.93F
LIMA           CLOUDY    39  37  92 E9        29.87F
$$

OHZ009>014-019>023-028>033-038-089-200300-
   NORTHEAST OHIO

CITY           SKY/WX    TMP DP  RH WIND       PRES   REMARKS
CLE-HOPKINS    CLOUDY    39  33  79 SE6       29.97F
CLE-LAKEFRONT  PTCLDY    39  34  82 SE6       29.95F
CUY CO. ARPT   CLOUDY    37  36  93 S7        29.97F
LORAIN-ELYRIA  CLOUDY    37  32  82 SE7       29.95F
ASHTABULA      CLOUDY    34  33  96 S3        29.98S
AKRON-CANTON   CLOUDY    37  32  82 E5        29.94F
WOOSTER        CLOUDY    36  33  89 SE7       29.94F
MANSFIELD      CLOUDY    35  34  96 SE8       29.91F WCI  29
YOUNGSTOWN     CLOUDY    37  33  85 SE5       29.96F
$$

OHZ042-051>053-060>062-070>072-077>081-200300-
  SOUTHWEST OHIO

CITY           SKY/WX    TMP DP  RH WIND       PRES   REMARKS
CINC-COVINGTON CLOUDY    47  43  86 E9        29.81F
CINC-LUNKEN    CLOUDY    48  44  86 NE5       29.84F
HAMILTON       LGT RAIN  47  44  90 E6        29.84F
DAYTON         CLOUDY    43  38  82 E13       29.84F
WRIGHT-PAT AFB CLOUDY    43  40  89 E7        29.85F
DAYTON GENERAL CLOUDY    46  40  79 E9        29.83F
WILMINGTON     CLOUDY    44  39  82 E10       29.85F
$$

OHZ036-037-039>041-045>050-054>059-063>069-073>076-082>088-200300-
  CENTRAL AND SOUTHEAST OHIO

CITY           SKY/WX    TMP DP  RH WIND       PRES   REMARKS
COLUMBUS       CLOUDY    42  37  82 E9        29.89F
OSU AIRPORT    PTCLDY    40  38  93 E9        29.89F
BOLTON FIELD   NOT AVBL
RICKENBACK AFB   N/A     40  38  92 E7        29.89F
NEWARK         PTCLDY    40  36  86 E6        29.91F
MARION         CLOUDY    38  34  85 SE10      29.91F
LANCASTER      PTCLDY    42  37  82 E6        29.90F
ZANESVILLE     CLOUDY    40  36  86 E5        29.93F
NEW PHILLY     NOT AVBL
$$




USA.gov is the U.S. government's official web portal to all federal, state and local government web resources and services.